DW6873 Weather Reports


Display with metric or nautical units.
time (UTC)temp
F
wind
direction
speed
MPH
gust
MPH
rain 1hr
in
rain 24hr
in
rain mn
in
humidity
%
barometer
mb
20260502123027 0 0.0 0.0 0.00 0.00 0.00 1013.2
20260502121516 0 0.0 0.0 0.00 0.00 0.00 1013.4
20260502114506 0 0.0 0.0 0.00 0.00 0.00 1013.5
20260502113101 0 0.0 0.0 0.00 0.00 0.00 1013.8
20260502111557 0 0.0 0.0 0.00 0.00 0.00 1013.9
20260502110052 0 0.0 0.0 0.00 0.00 0.00 1014.2
20260502104548 42 248 0.0 1.0 0.00 0.00 0.00 58 1014.6
20260502103048 43 254 0.0 2.0 0.00 0.00 0.00 57 1014.8
20260502101548 46 248 0.0 4.0 0.00 0.00 0.00 53 1014.7
20260502071524 45 216 0.0 1.0 0.00 0.00 0.00 53 1016.2
20260502070022 44 224 0.0 0.0 0.00 0.00 0.00 55 1016.5
20260502064520 44 203 0.0 0.0 0.00 0.00 0.00 55 1016.7
20260502063021 44 204 0.0 0.0 0.00 0.00 0.00 55 1016.8
20260502061514 43 217 0.0 0.0 0.00 0.00 0.00 54 1017.0
20260502060013 46 217 0.0 0.0 0.00 0.00 0.00 50 1017.0
20260502054513 46 224 0.0 0.0 0.00 0.00 0.00 50 1017.0
20260502053053 46 204 0.0 0.0 0.00 0.00 0.00 49 1017.2
20260502051540 47 210 0.0 1.0 0.00 0.00 0.00 48 1017.3
20260502050036 46 212 0.0 0.0 0.00 0.00 0.00 50 1017.4
20260502044534 44 203 0.0 0.0 0.00 0.00 0.00 53 1017.5
20260502043038 40 210 0.0 0.0 0.00 0.00 0.00 59 1017.6
20260502041533 40 210 0.0 0.0 0.00 0.00 0.00 58 1017.7
20260502040005 41 232 0.0 0.0 0.00 0.00 0.00 58 1017.9
20260502034502 40 155 0.0 0.0 0.00 0.00 0.00 59 1017.9
20260502033059 41 155 0.0 0.0 0.00 0.00 0.00 58 1017.8
20260502031559 40 157 0.0 0.0 0.00 0.00 0.00 58 1017.8
20260502030058 40 261 0.0 0.0 0.00 0.00 0.00 58 1017.8
20260502024606 40 261 0.0 0.0 0.00 0.00 0.00 58 1017.7
20260502023052 41 242 0.0 0.0 0.00 0.00 0.00 56 1017.7
20260502021548 42 244 0.0 0.0 0.00 0.00 0.00 54 1017.5
20260502020044 45 272 0.0 0.0 0.00 0.00 0.00 53 1017.6
20260502014540 49 233 0.0 0.0 0.00 0.00 0.00 45 1017.6
20260502013035 54 234 0.0 0.0 0.00 0.00 0.00 40 1017.5
20260502011534 58 244 0.0 0.0 0.00 0.00 0.00 35 1017.5
20260502010031 60 256 0.0 0.0 0.00 0.00 0.00 32 1017.6
20260502004529 61 285 0.0 0.0 0.00 0.00 0.00 28 1017.7
20260502003023 62 302 0.0 0.0 0.00 0.00 0.00 30 1017.8
20260502001525 62 269 0.0 0.0 0.00 0.00 0.00 29 1017.9
20260502000019 63 252 0.0 0.0 0.00 0.00 0.00 27 1018.0
20260501234516 61 330 0.0 0.0 0.00 0.00 0.00 29 1018.2
20260501233015 62 318 0.0 0.0 0.00 0.00 0.00 27 1018.3
20260501231512 62 294 0.0 0.0 0.00 0.00 0.00 30 1018.3
20260501230044 62 330 0.0 0.0 0.00 0.00 0.00 28 1018.4
20260501224547 62 291 0.0 0.0 0.00 0.00 0.00 30 1018.6
20260501223042 61 264 0.0 0.0 0.00 0.00 0.00 31 1018.6
20260501221541 60 309 0.0 0.0 0.00 0.00 0.00 32 1018.7
20260501220031 60 305 0.0 0.0 0.00 0.00 0.00 32 1018.8
20260501214529 59 57 0.0 0.0 0.00 0.00 0.00 35 1019.0
20260501213109 60 37 0.0 0.0 0.00 0.00 0.00 31 1019.1
20260501211655 58 304 0.0 0.0 0.00 0.00 0.00 35 1019.3
20260501210051 59 284 0.0 0.0 0.00 0.00 0.00 34 1019.4
20260501204550 58 295 0.0 0.0 0.00 0.00 0.00 36 1019.6
20260501203048 58 292 0.0 0.0 0.00 0.00 0.00 37 1019.7
20260501201545 58 70 0.0 0.0 0.00 0.00 0.00 34 1019.6
20260501200041 59 80 0.0 0.0 0.00 0.00 0.00 37 1019.7
20260501194541 57 356 0.0 0.0 0.00 0.00 0.00 37 1019.9
20260501193044 59 328 0.0 0.0 0.00 0.00 0.00 36 1019.9
20260501191535 56 339 0.0 0.0 0.00 0.00 0.00 39 1020.0
20260501190032 57 323 0.0 0.0 0.00 0.00 0.00 37 1020.1
20260501184531 57 58 0.0 0.0 0.00 0.00 0.00 38 1020.2
20260501183030 57 63 0.0 1.0 0.00 0.00 0.00 39 1020.3
20260501181530 57 345 0.0 0.0 0.00 0.00 0.00 39 1020.3
20260501180059 56 25 0.0 0.0 0.00 0.00 0.00 39 1020.4
20260501174553 57 58 0.0 0.0 0.00 0.00 0.00 40 1020.4
20260501173047 55 56 0.0 0.0 0.00 0.00 0.00 41 1020.6
20260501171545 54 73 0.0 0.0 0.00 0.00 0.00 39 1020.7
20260501170043 54 319 0.0 0.0 0.00 0.00 0.00 42 1020.7
20260501164540 53 34 0.0 0.0 0.00 0.00 0.00 41 1020.7
20260501163044 53 342 0.0 0.0 0.00 0.00 0.00 43 1020.8
20260501161539 53 30 0.0 0.0 0.00 0.00 0.00 42 1020.7
20260501160036 51 337 0.0 0.0 0.00 0.00 0.00 43 1020.7
20260501160033 51 341 0.0 0.0 0.00 0.00 0.00 43 1020.7
20260501154533 51 10 0.0 0.0 0.00 0.00 0.00 43 1020.7
20260501153029 51 328 0.0 0.0 0.00 0.00 0.00 44 1020.8
20260501151524 49 327 0.0 0.0 0.00 0.00 0.00 42 1020.8
20260501150024 49 328 0.0 0.0 0.00 0.00 0.00 46 1020.7
20260501144527 48 300 0.0 0.0 0.00 0.00 0.00 48 1020.8
20260501143024 46 307 0.0 0.0 0.00 0.00 0.00 51 1020.9